Hourly Weather Luhynky

Today, 17 May, Monday

Time Temperature Precipitation Wind Pressure Humidity
00:00 +14°C° 0.6 mm 2 mps 739 mmHg 91%
01:00 +14°C° 0.6 mm 2 mps 739 mmHg 93%
02:00 +14°C° 0 mm 2 mps 739 mmHg 96%
03:00 +14°C° 0.4 mm 2 mps 738 mmHg 96%
04:00 +14°C° 0.4 mm 1 mps 738 mmHg 96%
05:00 +14°C° 0.4 mm 1 mps 737 mmHg 96%
06:00 +14°C° 0.7 mm 1 mps 738 mmHg 97%
07:00 +14°C° 0.7 mm 1 mps 738 mmHg 97%
08:00 +15°C° 0.7 mm 1 mps 738 mmHg 97%
09:00 +15°C° 1 mm 1 mps 737 mmHg 96%
10:00 +15°C° 1 mm 1 mps 737 mmHg 96%
11:00 +15°C° 1 mm 1 mps 737 mmHg 95%
12:00 +16°C° 0 mm 2 mps 737 mmHg 91%
13:00 +17°C° 0 mm 2 mps 736 mmHg 86%
14:00 +17°C° 0 mm 2 mps 736 mmHg 82%
15:00 +18°C° 0.1 mm 2 mps 736 mmHg 80%
16:00 +18°C° 0.1 mm 2 mps 736 mmHg 78%
17:00 +19°C° 0.1 mm 1 mps 736 mmHg 76%
18:00 +18°C° 0.1 mm 1 mps 736 mmHg 80%
19:00 +16°C° 0.1 mm 1 mps 735 mmHg 84%
20:00 +15°C° 0.1 mm 1 mps 735 mmHg 89%
21:00 +15°C° 0.1 mm 1 mps 735 mmHg 90%
22:00 +15°C° 0.1 mm 1 mps 735 mmHg 91%
23:00 +15°C° 0.1 mm 1 mps 735 mmHg 92%

Tomorrow, 18 May, Tuesday

Time Temperature Precipitation Wind Pressure Humidity
00:00 +14°C° 0.3 mm 1 mps 735 mmHg 93%
01:00 +14°C° 0.3 mm 1 mps 735 mmHg 95%
02:00 +14°C° 0.3 mm 1 mps 735 mmHg 96%
03:00 +14°C° 0.7 mm 1 mps 735 mmHg 96%
04:00 +14°C° 0.7 mm 1 mps 735 mmHg 97%
05:00 +14°C° 0.7 mm 1 mps 735 mmHg 97%
06:00 +14°C° 0.2 mm 1 mps 735 mmHg 94%
07:00 +15°C° 0.2 mm 1 mps 735 mmHg 92%
08:00 +15°C° 0.2 mm 1 mps 735 mmHg 89%
09:00 +18°C° 0.1 mm 1 mps 735 mmHg 82%
10:00 +19°C° 0.1 mm 1 mps 735 mmHg 74%
11:00 +21°C° 0.1 mm 1 mps 735 mmHg 67%
12:00 +21°C° 0.9 mm 1 mps 735 mmHg 66%
13:00 +21°C° 0.9 mm 1 mps 735 mmHg 66%
14:00 +21°C° 0.9 mm 1 mps 734 mmHg 66%
15:00 +21°C° 1.2 mm 1 mps 734 mmHg 69%
16:00 +21°C° 1.2 mm 1 mps 734 mmHg 73%
17:00 +20°C° 1.2 mm 1 mps 734 mmHg 76%
18:00 +19°C° 1.2 mm 1 mps 734 mmHg 81%
19:00 +17°C° 1.2 mm 2 mps 734 mmHg 87%
20:00 +15°C° 1.2 mm 2 mps 734 mmHg 92%
21:00 +14°C° 0.4 mm 3 mps 734 mmHg 93%
22:00 +13°C° 0.4 mm 3 mps 734 mmHg 95%
23:00 +13°C° 0.4 mm 4 mps 735 mmHg 96%

Day after tomorrow, 19 May, Wednesday

Time Temperature Precipitation Wind Pressure Humidity
00:00 +13°C° 0.3 mm 4 mps 735 mmHg 96%
01:00 +12°C° 0.3 mm 4 mps 735 mmHg 96%
02:00 +12°C° 0.3 mm 4 mps 735 mmHg 96%
03:00 +12°C° 0.4 mm 4 mps 735 mmHg 96%
04:00 +12°C° 0.4 mm 4 mps 735 mmHg 96%
05:00 +12°C° 0.4 mm 4 mps 735 mmHg 96%
06:00 +12°C° 1.9 mm 4 mps 735 mmHg 96%
07:00 +12°C° 1.9 mm 4 mps 736 mmHg 97%
08:00 +12°C° 1.9 mm 4 mps 736 mmHg 97%
09:00 +12°C° 1.9 mm 4 mps 736 mmHg 97%
10:00 +12°C° 1.9 mm 4 mps 736 mmHg 97%
11:00 +12°C° 1.9 mm 5 mps 737 mmHg 96%
12:00 +12°C° 0.5 mm 5 mps 737 mmHg 95%
13:00 +11°C° 0.5 mm 6 mps 737 mmHg 94%
14:00 +11°C° 0.5 mm 6 mps 738 mmHg 93%
15:00 +11°C° 0.1 mm 6 mps 738 mmHg 91%
16:00 +12°C° 0.1 mm 5 mps 738 mmHg 90%
17:00 +12°C° 0.1 mm 5 mps 738 mmHg 88%
18:00 +10°C° 0.2 mm 5 mps 738 mmHg 89%
19:00 +11°C° 0.2 mm 4 mps 739 mmHg 90%
20:00 +10°C° 0.2 mm 4 mps 739 mmHg 91%
21:00 +11°C° 0.6 mm 4 mps 739 mmHg 92%
22:00 +11°C° 0.6 mm 4 mps 738 mmHg 93%
23:00 +11°C° 0.6 mm 4 mps 738 mmHg 94%

20 May, Thursday

Time Temperature Precipitation Wind Pressure Humidity
00:00 +10°C° 0.7 mm 5 mps 738 mmHg 94%
01:00 +9°C° 0.7 mm 5 mps 738 mmHg 94%
02:00 +9°C° 0.7 mm 5 mps 737 mmHg 95%
03:00 +9°C° 1.2 mm 5 mps 737 mmHg 95%
04:00 +9°C° 1.2 mm 5 mps 737 mmHg 95%
05:00 +9°C° 1.2 mm 5 mps 737 mmHg 95%
06:00 +9°C° 0.6 mm 5 mps 737 mmHg 94%
07:00 +9°C° 0.6 mm 5 mps 737 mmHg 93%
08:00 +9°C° 0.6 mm 5 mps 737 mmHg 93%
09:00 +10°C° 0.3 mm 6 mps 737 mmHg 90%
10:00 +10°C° 0.3 mm 6 mps 737 mmHg 87%
11:00 +11°C° 0.3 mm 7 mps 738 mmHg 84%
12:00 +11°C° 0.1 mm 6 mps 738 mmHg 82%
13:00 +11°C° 0.1 mm 6 mps 738 mmHg 81%
14:00 +11°C° 0.1 mm 6 mps 738 mmHg 79%
15:00 +11°C° 0 mm 6 mps 738 mmHg 79%
16:00 +11°C° 0 mm 6 mps 738 mmHg 78%
17:00 +11°C° 0 mm 6 mps 738 mmHg 78%
18:00 +10°C° 0 mm 5 mps 739 mmHg 80%
19:00 +9°C° 0 mm 5 mps 739 mmHg 82%
20:00 +8°C° 0 mm 5 mps 739 mmHg 84%
21:00 +8°C° 0 mm 5 mps 739 mmHg 86%
22:00 +8°C° 0 mm 5 mps 739 mmHg 88%
23:00 +8°C° 0 mm 5 mps 740 mmHg 90%

21 May, Friday

Time Temperature Precipitation Wind Pressure Humidity
00:00 +8°C° 0.1 mm 5 mps 740 mmHg 90%
01:00 +9°C° 0.1 mm 5 mps 740 mmHg 90%
02:00 +9°C° 0.1 mm 5 mps 741 mmHg 90%
03:00 +8°C° 0.1 mm 5 mps 741 mmHg 90%
04:00 +8°C° 0.1 mm 5 mps 742 mmHg 90%
05:00 +8°C° 0.1 mm 5 mps 742 mmHg 90%
06:00 +8°C° 0 mm 5 mps 743 mmHg 85%
07:00 +8°C° 0 mm 5 mps 743 mmHg 81%
08:00 +9°C° 0 mm 5 mps 743 mmHg 76%
09:00 +10°C° 0 mm 5 mps 744 mmHg 69%
10:00 +12°C° 0 mm 5 mps 744 mmHg 62%
11:00 +13°C° 0 mm 5 mps 745 mmHg 54%
12:00 +14°C° 0 mm 5 mps 745 mmHg 52%
13:00 +14°C° 0 mm 5 mps 745 mmHg 50%
14:00 +15°C° 0 mm 5 mps 745 mmHg 48%
15:00 +15°C° 0 mm 5 mps 745 mmHg 50%
16:00 +15°C° 0 mm 4 mps 745 mmHg 52%
17:00 +15°C° 0 mm 4 mps 745 mmHg 54%
18:00 +13°C° 0 mm 3 mps 745 mmHg 60%
19:00 +11°C° 0 mm 3 mps 746 mmHg 66%
20:00 +9°C° 0 mm 3 mps 746 mmHg 73%
21:00 +8°C° 0 mm 3 mps 746 mmHg 74%
22:00 +8°C° 0 mm 2 mps 746 mmHg 75%
23:00 +7°C° 0 mm 2 mps 746 mmHg 76%

22 May, Saturday

Time Temperature Precipitation Wind Pressure Humidity
00:00 +6°C° 0 mm 2 mps 746 mmHg 78%
01:00 +6°C° 0 mm 2 mps 746 mmHg 80%
02:00 +6°C° 0 mm 2 mps 746 mmHg 82%
03:00 +6°C° 0 mm 2 mps 746 mmHg 82%
04:00 +6°C° 0 mm 2 mps 746 mmHg 83%
05:00 +5°C° 0 mm 2 mps 747 mmHg 83%
06:00 +8°C° 0 mm 2 mps 747 mmHg 77%
07:00 +10°C° 0 mm 2 mps 747 mmHg 70%
08:00 +13°C° 0 mm 2 mps 747 mmHg 63%
09:00 +14°C° 0 mm 2 mps 747 mmHg 59%
10:00 +15°C° 0 mm 2 mps 747 mmHg 54%
11:00 +17°C° 0 mm 2 mps 747 mmHg 50%
12:00 +17°C° 0 mm 2 mps 747 mmHg 50%
13:00 +18°C° 0 mm 2 mps 746 mmHg 49%
14:00 +18°C° 0 mm 2 mps 746 mmHg 48%
15:00 +18°C° 0 mm 2 mps 746 mmHg 49%
16:00 +19°C° 0 mm 1 mps 746 mmHg 50%
17:00 +19°C° 0 mm 1 mps 746 mmHg 51%
18:00 +16°C° 0 mm 1 mps 746 mmHg 59%
19:00 +14°C° 0 mm 1 mps 746 mmHg 66%
20:00 +13°C° 0 mm 1 mps 746 mmHg 73%
21:00 +12°C° 0 mm 1 mps 746 mmHg 74%
22:00 +12°C° 0 mm 1 mps 747 mmHg 75%
23:00 +10°C° 0 mm 2 mps 747 mmHg 75%
Show more

We Need Your Consent

Meteoprog and our Service Providers may store and access personal data such as cookies, device identifiers or other similar technologies on your device and process such data to personalise content and ads, as well as provide social media features and to analyse the traffic.

  • Store and/or access information on your device

    Cookies, device identifiers or other information can be stored or accessed on your device for the purposes indicated above.

  • Personalised ads and content, ad and content measurement, audience insights, and products development

    Ads and content can be personalised based on a profile. More data can be added to better personalise ads and content. Ad and content performance can be measured. Insights about the audience who saw the ads and content can be derived. Such data can be used to develop or improve user’s experience, systems and software.

By clicking ‘I Agree’ you will allow the use of indicated cookies, device identifiers, web beacons or other similar technologies. Your settings can be changed in the browser on your device.

For certain purposes, legitimate interests may be relied on, rather than consent. You can read more about this in our Privacy and Cookie Policy.